Wind_Speed
2 4 2 1 5 3 2 4 5 1 4 7 5 3 2 3 5 4 4 4 1 1 3 2 6 8 12 14 15 14 13 11 3 7 9 10 12 14 18 20 22 23 22 22 22 22 23 22 21 21 22 23 23 23 23 22 22 21 20 19 19 19 20
5 1 2 1 1 4 4 4 2 1 3 6 5 4 4 5 6 4 5 6 4 3 3 3 7 10 12 13 14 14 14 13 9 4 6 8 9 12 14 15 17 20 21 21 21 22 22 22 22 22 23 23 23 23 23 22 23 23 22 21 20 20 20
2 3 5 3 3 2 6 2 2 2 5 5 4 5 5 6 7 6 6 8 6 3 0 4 9 10 11 12 12 11 11 12 12 9 3 4 8 11 13 12 13 14 16 17 19 20 20 21 22 23 23 23 23 24 23 22 23 23 22 21 20 21 20
2 4 6 5 2 2 2 2 3 3 4 4 4 5 4 5 7 7 6 8 4 2 3 4 7 9 11 11 10 8 8 9 10 11 10 4 4 9 11 12 12 12 13 15 16 17 17 18 20 21 21 22 22 23 23 22 23 23 23 21 21 22 21
4 3 0 3 3 2 4 4 4 4 3 3 4 4 4 5 6 5 6 7 3 4 2 3 6 7 9 9 8 7 8 9 8 9 11 9 3 4 8 11 13 13 14 14 14 16 17 17 17 17 18 20 21 22 23 24 24 24 25 23 22 22 21
4 2 5 3 2 3 5 4 4 4 3 4 5 6 5 4 6 5 6 7 0 5 2 3 5 6 7 8 9 9 9 10 9 9 9 8 7 4 4 9 13 14 15 16 15 16 19 20 18 17 18 20 21 24 26 26 26 26 26 24 23 23 22
2 5 4 1 2 3 4 3 3 5 4 5 6 7 5 5 6 5 6 7 0 5 4 4 6 8 8 8 9 9 9 10 10 10 9 7 6 5 3 7 11 12 14 16 17 18 20 22 21 18 18 20 22 24 27 28 27 27 27 25 24 25 24
1 4 4 2 0 3 4 2 2 4 5 5 6 6 5 6 7 5 6 7 1 5 5 5 8 10 8 7 7 8 9 10 10 10 8 7 6 4 2 3 6 9 12 15 17 18 19 21 22 19 18 20 21 21 24 27 27 27 27 25 25 26 27
5 5 5 6 4 4 5 2 1 4 5 5 5 4 4 6 7 7 9 7 1 3 3 5 9 9 7 6 6 7 8 10 10 10 8 6 6 5 3 2 4 5 7 11 15 17 16 16 19 20 19 20 21 21 22 25 26 26 27 27 26 27 27
4 3 2 2 2 3 4 3 2 4 5 5 5 4 5 6 5 7 9 5 2 3 2 5 8 7 6 6 6 7 9 10 10 10 8 6 5 6 5 3 2 2 2 4 8 13 14 14 14 17 19 18 17 18 20 22 23 24 25 27 27 27 27
5 4 4 4 3 4 5 4 4 4 3 4 5 6 6 5 4 6 4 2 5 6 4 6 7 6 4 6 7 10 11 11 11 11 9 7 6 7 7 5 2 0 1 1 3 8 11 13 13 16 19 18 14 14 17 18 20 21 22 24 25 26 26
5 5 4 3 3 4 5 4 5 5 3 3 4 5 5 5 6 4 1 3 5 7 6 6 6 6 5 7 10 11 12 11 11 11 10 9 9 9 9 9 7 5 5 3 1 4 7 10 11 13 16 16 13 13 14 15 17 18 19 19 20 21 22
4 4 4 3 3 3 3 5 5 5 6 6 6 5 4 3 4 1 3 2 3 6 6 6 7 6 7 10 12 12 12 12 12 13 14 14 14 14 14 14 12 11 10 8 4 2 5 8 8 9 13 14 13 11 11 13 15 16 18 19 17 17 19
4 3 3 4 4 4 3 3 4 4 4 4 3 2 1 1 2 4 4 3 4 5 5 7 7 6 8 12 13 14 13 12 13 15 16 17 17 17 17 16 15 13 12 11 9 6 3 3 5 6 11 15 17 17 17 19 19 17 17 18 17 17 17
5 3 3 4 5 5 5 4 3 3 1 1 1 2 3 3 3 4 5 6 5 4 6 7 8 8 9 11 13 14 12 10 13 16 18 18 18 19 18 16 16 16 15 14 12 11 10 6 1 3 6 11 16 19 20 23 23 20 18 17 17 18 18
3 3 3 5 5 6 8 7 6 5 4 2 1 2 1 2 1 4 5 4 4 5 5 6 8 10 9 10 11 10 10 9 13 17 20 18 18 19 19 16 16 17 18 17 15 13 12 10 8 3 1 5 10 13 15 16 17 17 17 17 18 19 20
1 3 2 4 5 7 7 4 4 4 3 2 1 2 1 1 0 2 3 1 5 6 6 6 7 7 6 7 8 9 9 9 14 17 19 18 18 18 18 18 17 16 18 18 17 15 13 12 12 9 5 2 4 7 9 11 12 13 13 15 17 19 20
1 2 2 5 6 6 2 2 0 1 2 3 3 1 1 2 1 2 3 6 6 6 5 6 7 7 3 4 5 6 8 9 13 16 17 16 16 16 17 18 17 14 15 18 18 17 15 14 14 13 10 6 3 2 3 5 7 8 9 10 12 14 17
2 1 3 7 5 1 2 3 1 2 2 3 3 1 2 2 2 1 5 6 5 6 7 7 10 10 7 6 7 6 8 10 12 14 15 15 15 15 16 18 17 15 15 16 18 20 18 17 16 15 14 12 8 5 3 1 1 2 3 4 7 9 12
3 2 5 5 2 1 3 5 4 4 4 4 4 4 5 4 3 2 4 5 5 6 8 9 10 10 8 9 10 7 8 10 10 12 14 14 13 14 15 15 16 16 15 14 17 21 22 20 19 17 17 16 14 11 9 7 5 3 1 2 3 5 6
3 4 4 3 4 3 4 5 5 4 4 3 3 3 4 6 5 4 4 6 6 6 7 9 10 8 8 8 8 6 7 10 10 10 11 11 12 13 13 13 15 15 15 14 14 18 21 22 20 18 17 18 18 18 17 15 13 11 9 9 8 7 6
3 5 5 4 5 3 2 3 4 4 2 2 1 3 3 7 7 6 5 6 8 7 7 9 9 7 5 4 4 6 8 9 8 8 9 10 11 12 11 12 13 14 15 15 14 17 21 22 21 19 19 20 21 22 21 20 19 18 17 16 14 12 12
4 5 5 4 3 1 3 3 5 6 5 4 3 3 2 6 8 8 7 8 9 10 9 9 9 5 3 2 5 7 8 9 8 7 8 9 10 11 11 11 12 13 15 16 15 17 19 20 20 20 20 20 21 22 21 21 23 24 22 20 18 15 14
4 5 5 4 2 2 5 4 6 7 6 5 5 4 1 6 9 9 8 8 9 10 10 10 8 4 1 4 9 11 9 9 8 8 8 9 9 10 10 10 11 12 14 15 15 17 18 17 17 18 20 22 23 24 25 25 26 26 24 22 20 18 16
4 4 5 4 1 4 6 6 6 7 6 5 5 2 2 6 9 8 8 8 8 9 10 8 5 1 5 10 15 14 11 10 9 9 9 9 9 9 9 10 10 11 13 14 14 16 17 16 15 16 18 21 23 25 26 26 26 24 22 21 20 19 18
4 3 5 4 1 3 6 7 7 6 5 4 1 2 4 7 8 7 6 7 7 9 8 6 4 5 9 13 15 13 10 10 10 9 8 9 9 9 10 11 11 11 13 14 14 15 16 15 14 14 16 20 21 22 24 24 23 22 20 20 19 19 19
4 3 5 5 2 3 9 10 7 5 4 0 3 4 5 6 7 6 6 6 7 8 8 6 7 9 11 12 13 11 10 9 9 9 9 9 10 10 10 10 11 11 13 14 15 15 16 16 15 14 15 17 18 20 21 21 20 19 19 19 19 19 19
4 5 4 2 2 7 13 9 2 3 3 5 5 5 5 6 6 5 6 6 7 8 9 9 10 12 12 12 12 11 10 9 9 9 10 10 10 11 12 12 12 12 13 14 15 16 16 15 15 15 15 16 16 17 19 18 16 17 17 17 18 18 19
3 3 2 3 5 9 12 5 3 4 6 6 4 4 5 5 5 4 5 7 8 8 9 11 12 13 14 13 12 11 10 10 10 10 10 10 10 11 13 15 15 15 15 15 15 17 17 16 14 14 15 15 15 17 17 15 14 14 14 14 15 16 17
2 1 3 4 5 8 10 5 3 5 6 5 5 5 5 6 6 5 6 7 9 10 11 13 14 15 15 13 11 11 11 11 11 11 10 10 10 10 12 14 14 13 14 14 15 16 16 16 15 15 14 14 14 15 15 13 12 12 13 13 13 14 15
3 3 4 6 6 8 10 7 5 6 6 6 5 5 6 7 7 7 7 9 11 11 12 14 16 16 15 14 12 12 12 12 11 11 10 10 10 10 10 12 11 11 11 13 13 14 15 15 15 15 14 14 13 13 13 11 10 11 13 12 13 13 13
3 2 6 7 6 7 8 8 8 9 8 7 7 6 8 9 8 9 9 10 11 12 12 14 16 16 14 13 13 13 12 12 11 11 10 11 10 9 9 10 10 10 10 10 10 11 12 13 13 13 14 13 12 11 11 10 10 11 12 12 12 12 12
3 3 7 8 7 7 9 9 9 10 10 9 9 9 10 11 10 11 11 10 11 12 13 15 16 15 13 13 13 14 14 13 12 11 10 10 9 9 8 8 8 8 9 9 9 9 10 11 11 12 12 12 11 11 10 10 10 10 11 12 11 11 11
5 4 10 12 6 5 11 13 11 12 11 11 11 11 11 12 11 11 12 11 11 12 13 14 14 13 13 13 13 14 14 13 12 11 10 9 8 8 7 7 6 6 7 8 8 8 10 10 10 10 10 10 10 10 9 9 9 10 11 11 10 9 9
4 4 15 18 7 4 13 17 14 13 13 12 13 13 12 12 12 11 12 12 12 12 13 12 12 12 12 13 13 13 14 13 12 10 8 7 7 7 6 5 5 4 5 6 7 7 8 9 9 9 9 8 8 8 8 9 9 9 9 9 8 8 8
2 4 15 17 7 3 14 19 17 15 14 12 13 14 13 13 13 12 12 12 12 13 13 12 11 12 12 13 12 12 13 12 11 9 7 7 7 7 6 5 4 3 4 5 5 6 6 7 8 8 8 8 9 8 8 8 8 7 8 8 8 8 8
2 6 13 13 6 7 15 19 17 16 15 13 13 14 13 14 13 12 12 13 13 14 14 13 12 12 12 13 12 12 12 12 11 10 9 8 8 7 5 4 4 3 2 3 4 4 5 6 7 7 7 8 9 9 9 9 8 7 7 7 7 7 7
Wind_Direction
50 359 13 289 276 269 163 205 230 261 323 290 279 283 262 261 262 236 218 232 13 99 174 74 16 22 28 20 16 17 14 9 28 152 163 192 207 211 212 211 210 209 209 208 208 213 219 220 216 212 215 223 228 230 228 222 217 218 217 216 214 213 213
110 39 307 149 293 296 261 227 214 150 287 275 271 263 224 230 250 226 207 227 236 221 199 55 28 23 21 18 16 18 24 23 27 86 147 176 195 210 211 209 211 209 209 210 211 215 220 219 215 217 225 230 231 232 231 224 218 217 217 217 218 217 217
118 187 239 206 131 321 302 306 135 210 248 231 221 251 249 243 251 241 213 218 234 251 26 30 20 18 17 13 8 9 21 20 14 16 31 157 185 213 213 203 205 207 209 211 213 215 217 218 218 219 227 230 229 233 233 225 220 219 217 214 217 220 221
294 217 229 243 177 146 279 236 192 232 276 274 244 247 263 267 261 259 242 226 216 55 44 23 14 15 17 10 355 351 8 4 359 360 355 358 191 216 222 215 210 207 210 213 216 218 215 217 220 218 221 224 225 229 232 226 220 219 217 212 215 221 220
248 231 48 315 299 255 245 231 230 230 237 275 273 250 249 266 266 264 259 248 192 97 70 27 24 21 23 7 339 341 356 348 348 355 349 347 328 234 225 230 228 220 219 219 220 224 222 220 220 218 218 219 219 224 230 231 228 225 222 215 215 221 221
233 103 64 13 350 310 283 262 263 264 251 256 257 245 233 244 262 263 263 267 138 91 55 29 35 28 31 4 339 351 356 342 345 352 345 344 336 307 251 243 244 237 236 236 233 234 233 229 223 220 220 222 225 231 236 239 239 236 231 220 216 220 222
14 88 94 359 7 328 291 274 269 271 263 255 255 261 254 242 253 260 265 266 78 65 19 29 44 35 34 10 349 358 359 350 352 352 348 354 351 332 286 257 255 248 246 247 244 243 245 242 234 224 222 227 231 235 238 240 242 242 238 227 220 225 228
124 147 163 182 247 278 259 235 260 271 276 279 280 286 281 256 245 239 252 254 181 53 10 33 51 45 40 24 7 360 357 359 360 357 358 7 11 7 351 300 282 263 251 247 241 238 242 246 241 229 222 228 233 233 237 242 245 245 243 234 227 231 235
193 198 196 188 197 243 253 244 307 294 290 280 273 279 274 259 246 234 248 254 154 61 360 41 54 50 43 32 21 7 6 8 5 8 14 14 17 27 34 1 324 291 258 246 237 230 230 237 239 233 229 234 238 239 241 245 246 244 243 240 236 237 239
248 242 236 219 226 234 240 248 270 281 286 280 277 266 247 245 226 224 250 264 124 125 88 55 49 44 41 37 33 29 28 22 16 18 26 28 27 37 49 42 2 330 260 240 232 226 221 222 227 228 228 232 242 249 250 250 248 246 245 245 243 242 242
307 333 9 11 326 263 243 237 234 253 294 312 308 283 271 292 275 229 229 127 138 147 116 69 46 35 38 36 34 36 34 29 27 26 32 46 46 44 55 59 44 94 166 143 207 217 214 211 212 215 216 219 227 241 249 251 249 247 249 251 249 246 245
295 328 350 355 310 279 271 263 256 265 275 273 277 264 264 304 288 250 91 94 162 146 112 79 49 36 35 33 33 35 31 31 38 37 37 54 65 61 64 65 63 69 72 73 165 219 216 212 211 209 207 208 213 226 242 251 248 242 242 246 249 249 248
268 293 297 285 284 284 284 281 279 286 284 269 257 240 230 256 263 223 58 42 155 122 93 66 46 34 36 36 31 26 26 34 43 40 37 48 61 62 61 62 63 63 65 71 92 166 214 223 222 210 205 209 221 234 247 258 259 251 242 239 241 246 246
241 256 273 257 256 258 261 281 289 291 303 303 281 245 200 167 154 140 132 133 115 84 59 57 53 42 45 43 28 15 18 36 46 45 42 43 50 55 55 55 58 57 59 66 75 85 114 208 226 226 221 223 232 242 248 254 259 260 253 247 244 245 243
217 210 255 247 245 252 246 243 252 248 235 106 121 124 125 146 156 157 171 165 136 87 53 61 60 49 48 47 30 7 2 29 51 58 55 44 42 50 51 50 53 55 58 61 61 62 65 68 95 231 235 230 233 239 246 252 255 256 254 251 248 245 242
197 161 244 251 242 251 247 236 228 224 220 213 140 116 121 286 205 181 205 196 146 114 89 71 54 45 41 43 32 354 344 33 62 70 66 53 45 49 49 46 48 50 53 55 54 53 52 52 57 69 183 213 224 231 236 242 247 251 251 250 247 246 245
187 132 264 268 244 245 246 235 227 226 235 258 194 132 170 289 203 221 241 124 110 112 114 103 72 56 43 43 30 339 333 41 70 73 70 63 54 52 50 47 46 45 48 51 54 54 51 49 50 51 59 116 194 215 225 229 233 239 244 246 246 245 246
264 120 263 262 249 249 231 87 40 235 222 241 231 168 145 172 220 322 44 94 119 124 123 127 116 109 105 78 58 354 350 38 65 68 68 66 61 56 51 50 48 46 47 49 52 54 52 51 51 51 52 57 69 124 198 219 225 234 238 243 249 248 246
276 106 245 247 247 245 114 118 137 173 190 232 244 227 173 205 261 345 97 117 142 135 131 137 137 141 147 118 91 54 31 44 58 63 64 64 62 58 52 50 50 49 48 48 50 53 51 51 52 53 56 56 53 60 73 104 192 247 254 258 269 267 258
267 244 239 252 323 10 172 162 148 161 189 206 220 217 183 182 237 218 136 144 156 146 145 145 142 149 144 108 85 68 56 57 58 61 62 60 60 59 54 52 52 51 50 49 52 55 54 53 53 55 62 65 65 69 72 71 71 61 20 329 312 304 280
255 265 250 266 313 279 205 164 153 182 203 198 230 250 165 156 192 213 166 154 155 153 156 154 149 154 149 115 85 78 84 74 63 62 64 62 62 63 60 57 55 56 58 56 55 58 59 59 59 63 73 78 77 78 78 75 74 75 70 65 56 46 44
232 274 269 259 275 265 134 107 142 178 177 136 208 267 176 157 179 194 186 168 155 154 166 165 154 153 158 131 99 107 108 92 76 71 70 68 67 67 65 62 59 61 65 65 63 64 64 64 66 72 82 87 85 81 78 76 75 75 71 69 66 64 61
220 256 266 262 273 327 84 101 142 161 164 150 177 243 198 155 166 182 187 175 162 167 180 175 163 165 190 161 137 138 126 107 96 87 77 72 71 70 68 66 64 65 67 66 67 68 64 61 65 72 80 84 83 78 74 73 72 70 67 65 64 64 63
220 241 262 268 275 83 101 126 149 156 168 186 215 245 203 137 156 174 185 179 169 173 180 180 181 195 207 143 144 145 135 116 103 92 81 75 71 71 71 70 67 67 66 63 63 67 64 57 58 67 75 78 77 76 74 72 71 69 67 67 67 68 67
215 229 259 266 243 101 122 151 158 156 174 218 240 251 104 135 150 164 184 185 174 173 177 185 194 130 96 132 143 140 130 117 104 90 82 78 75 73 74 75 71 67 65 62 62 68 70 64 57 62 71 74 74 74 73 71 69 68 68 69 70 72 73
226 235 260 257 222 115 144 152 145 162 198 239 276 84 108 139 145 154 183 185 174 178 181 179 163 123 122 137 140 133 124 115 105 95 89 86 83 78 73 74 74 71 69 66 65 69 74 73 65 62 67 71 71 71 71 69 67 68 68 68 69 69 70
230 233 240 253 286 139 158 154 149 192 223 114 115 135 128 132 141 152 170 172 173 180 177 163 151 141 135 135 132 126 123 116 105 101 100 98 93 86 78 75 75 74 72 70 70 72 75 77 76 70 68 69 69 69 69 68 67 67 68 68 69 68 66
233 242 227 259 44 136 164 167 148 177 147 103 130 159 135 127 147 154 155 161 171 176 170 164 159 149 141 137 132 128 126 119 112 109 107 103 97 92 90 89 85 81 77 72 71 73 74 76 78 76 73 71 70 69 69 68 68 69 69 69 70 69 67
235 304 50 77 89 139 163 164 63 112 131 115 125 145 131 138 153 153 154 159 160 163 165 162 158 154 148 142 135 131 129 125 122 118 111 105 99 94 92 91 88 84 81 76 72 71 72 72 73 76 75 74 73 72 69 65 66 69 69 70 71 70 67
166 53 89 113 131 153 165 159 100 121 140 135 132 136 138 145 148 145 152 153 150 155 160 157 156 156 153 148 142 137 133 129 126 121 114 107 100 96 94 90 85 82 79 77 73 70 70 69 67 69 71 71 72 74 69 61 61 67 67 65 67 68 66
178 186 154 143 152 163 168 167 146 139 144 142 139 140 139 140 142 141 142 144 147 152 156 155 154 153 151 148 144 138 135 133 130 122 116 112 108 104 99 92 88 85 79 76 73 70 69 68 65 63 65 66 68 74 74 68 66 70 68 63 63 66 66
177 141 133 137 146 157 165 167 158 155 154 143 136 139 141 141 140 137 138 142 147 150 153 154 152 150 150 149 145 142 140 138 133 127 122 118 113 106 99 93 89 86 80 75 72 68 66 65 63 61 62 63 65 71 77 80 78 75 72 70 68 69 68
168 114 134 147 150 157 170 173 162 158 157 147 141 143 144 144 142 139 140 144 147 152 155 154 152 152 154 152 149 148 145 142 139 136 129 122 117 111 107 102 94 88 81 74 68 64 63 62 59 58 59 60 63 67 71 78 81 78 73 70 67 66 64
215 192 170 170 172 174 177 177 167 159 157 152 149 148 147 150 150 147 145 145 147 154 158 158 157 158 157 157 157 153 150 147 144 140 134 130 127 123 118 111 100 91 82 72 64 59 59 57 53 52 52 52 57 62 66 71 78 81 78 71 62 60 61
256 183 172 179 200 201 174 172 168 162 159 156 156 154 153 156 158 156 154 152 151 156 161 163 165 163 160 161 161 158 157 155 151 145 141 137 135 136 134 123 105 89 80 73 66 60 57 53 47 44 41 38 41 47 53 59 64 69 75 74 65 55 51
287 164 170 179 201 189 167 168 166 162 162 161 158 157 157 159 162 163 164 160 157 159 162 164 167 166 164 163 163 163 165 165 163 160 155 148 148 150 149 143 125 101 84 76 70 67 62 54 47 42 35 27 24 23 24 32 40 44 51 58 60 53 44
169 159 163 167 168 156 160 163 161 162 163 162 160 160 159 161 164 167 168 167 165 164 163 163 164 166 165 165 165 166 167 169 172 171 162 156 157 157 158 164 155 125 92 77 72 71 62 47 40 40 34 25 20 16 11 10 10 10 14 22 31 34 32
Height
1511 1512 1509 1507 1511 1511 1508 1509 1512 1509 1503 1505 1516 1523 1519 1521 1534 1531 1520 1520 1522 1524 1525 1517 1516 1516 1513 1516 1516 1513 1513 1511 1509 1512 1515 1519 1521 1522 1524 1525 1527 1530 1532 1534 1536 1538 1540 1542 1545 1547 1548 1550 1551 1553 1555 1557 1559 1561 1562 1563 1564 1566 1567
1511 1511 1510 1506 1507 1508 1509 1511 1507 1503 1507 1510 1515 1527 1530 1532 1539 1529 1517 1523 1529 1530 1530 1521 1516 1519 1519 1517 1517 1516 1516 1515 1514 1514 1517 1520 1521 1522 1524 1525 1526 1529 1531 1533 1535 1537 1539 1540 1543 1544 1546 1548 1550 1551 1553 1556 1557 1559 1560 1561 1563 1564 1566
1511 1508 1511 1510 1506 1505 1507 1505 1502 1506 1519 1520 1519 1528 1534 1536 1537 1526 1516 1519 1522 1524 1528 1526 1522 1523 1523 1520 1519 1518 1517 1518 1519 1518 1519 1520 1521 1522 1523 1524 1526 1528 1530 1532 1533 1536 1538 1539 1541 1543 1544 1546 1548 1550 1552 1554 1556 1557 1559 1561 1562 1563 1564
1511 1506 1509 1512 1509 1506 1505 1504 1503 1506 1513 1516 1517 1520 1523 1530 1534 1529 1522 1521 1523 1527 1527 1527 1527 1524 1523 1523 1521 1519 1520 1522 1522 1521 1521 1521 1521 1522 1523 1524 1526 1527 1529 1531 1532 1535 1537 1538 1540 1542 1544 1545 1547 1548 1550 1552 1554 1556 1558 1560 1561 1562 1563
1512 1512 1513 1513 1514 1512 1510 1510 1511 1510 1510 1511 1514 1513 1514 1523 1530 1533 1533 1527 1523 1527 1526 1525 1526 1523 1523 1524 1521 1521 1523 1524 1523 1523 1522 1521 1522 1522 1523 1524 1525 1527 1529 1530 1532 1534 1535 1537 1539 1541 1543 1544 1545 1547 1548 1550 1552 1553 1555 1557 1559 1560 1561
1511 1514 1516 1514 1515 1515 1513 1513 1512 1511 1512 1515 1523 1524 1514 1514 1521 1527 1533 1530 1524 1524 1523 1523 1524 1522 1523 1524 1522 1523 1526 1525 1524 1523 1523 1522 1522 1523 1523 1524 1525 1527 1528 1530 1532 1532 1533 1535 1537 1539 1541 1542 1543 1545 1546 1548 1549 1551 1553 1555 1557 1558 1559
1512 1515 1516 1515 1516 1514 1511 1512 1510 1510 1511 1513 1524 1530 1519 1514 1517 1516 1522 1528 1527 1525 1523 1522 1523 1522 1523 1525 1524 1524 1526 1526 1525 1524 1523 1523 1522 1522 1523 1524 1524 1525 1527 1529 1531 1531 1532 1534 1535 1537 1539 1540 1542 1543 1544 1545 1546 1548 1550 1553 1555 1556 1557
1515 1515 1514 1513 1515 1514 1513 1513 1511 1512 1513 1511 1514 1517 1515 1515 1516 1516 1525 1531 1529 1527 1526 1524 1522 1523 1526 1527 1526 1526 1526 1526 1525 1524 1524 1523 1523 1523 1523 1523 1523 1524 1525 1527 1529 1530 1532 1533 1534 1535 1537 1538 1540 1541 1542 1543 1544 1546 1548 1550 1552 1553 1554
1525 1523 1521 1520 1518 1516 1515 1514 1514 1514 1513 1513 1513 1512 1515 1520 1516 1515 1524 1530 1531 1530 1529 1525 1522 1524 1527 1527 1527 1527 1526 1526 1526 1525 1524 1524 1524 1523 1523 1523 1523 1523 1524 1526 1527 1529 1530 1532 1533 1534 1535 1536 1538 1540 1541 1541 1543 1544 1546 1547 1549 1550 1552
1531 1532 1531 1526 1520 1517 1516 1516 1518 1518 1515 1516 1517 1518 1523 1525 1521 1518 1520 1527 1534 1533 1528 1527 1526 1526 1528 1528 1528 1527 1527 1527 1527 1525 1525 1525 1524 1524 1524 1524 1524 1524 1525 1525 1526 1528 1529 1530 1531 1533 1534 1535 1536 1538 1540 1540 1542 1542 1543 1544 1546 1547 1549
1525 1525 1525 1520 1517 1519 1520 1519 1519 1519 1518 1518 1520 1525 1528 1527 1527 1526 1520 1523 1534 1535 1531 1531 1530 1529 1529 1529 1528 1528 1528 1528 1528 1526 1526 1526 1525 1525 1525 1524 1525 1525 1525 1526 1526 1527 1528 1529 1529 1530 1531 1532 1534 1536 1538 1539 1540 1540 1541 1542 1543 1544 1545
1520 1520 1520 1518 1519 1521 1521 1521 1520 1519 1520 1520 1524 1529 1532 1535 1541 1537 1525 1523 1530 1532 1532 1534 1533 1532 1532 1531 1531 1531 1530 1530 1529 1528 1527 1527 1526 1526 1525 1525 1525 1525 1526 1526 1527 1527 1528 1528 1528 1528 1529 1530 1532 1534 1535 1536 1537 1539 1540 1540 1540 1541 1542
1520 1519 1520 1519 1520 1522 1521 1522 1522 1520 1520 1520 1523 1526 1526 1532 1542 1540 1532 1530 1530 1530 1533 1535 1535 1535 1534 1534 1534 1533 1532 1532 1530 1530 1529 1529 1528 1527 1527 1526 1526 1526 1527 1527 1527 1528 1528 1528 1527 1527 1528 1530 1531 1532 1533 1535 1536 1538 1538 1538 1538 1539 1540
1520 1520 1521 1519 1520 1522 1523 1523 1522 1521 1521 1520 1521 1523 1523 1527 1533 1533 1532 1533 1533 1533 1534 1535 1537 1537 1536 1536 1536 1535 1535 1533 1531 1530 1530 1530 1530 1529 1528 1528 1527 1528 1528 1527 1528 1527 1527 1527 1526 1526 1526 1527 1528 1530 1531 1533 1535 1536 1537 1536 1535 1535 1537
1521 1520 1520 1520 1520 1522 1523 1524 1523 1521 1522 1522 1522 1524 1525 1527 1530 1530 1530 1532 1534 1534 1534 1535 1537 1538 1537 1536 1535 1538 1538 1536 1533 1531 1530 1532 1533 1531 1530 1529 1528 1528 1528 1528 1527 1527 1526 1526 1525 1524 1524 1524 1526 1528 1530 1532 1534 1534 1535 1534 1533 1533 1535
1522 1519 1521 1521 1519 1521 1522 1523 1522 1521 1522 1523 1523 1524 1525 1526 1528 1530 1531 1531 1532 1532 1533 1535 1537 1538 1538 1537 1537 1541 1542 1538 1535 1532 1531 1534 1535 1532 1531 1531 1530 1529 1528 1528 1527 1527 1526 1526 1525 1524 1525 1525 1526 1527 1529 1531 1532 1532 1532 1532 1532 1532 1533
1522 1519 1522 1520 1520 1526 1528 1523 1520 1520 1521 1523 1523 1525 1525 1524 1527 1530 1528 1526 1529 1531 1532 1534 1537 1539 1540 1539 1540 1543 1544 1540 1536 1533 1532 1534 1535 1534 1534 1533 1532 1531 1530 1529 1528 1527 1527 1526 1525 1525 1525 1526 1526 1527 1528 1529 1529 1530 1530 1530 1530 1531 1531
1524 1521 1521 1522 1527 1533 1531 1522 1518 1519 1522 1523 1524 1526 1525 1524 1526 1526 1524 1525 1528 1530 1532 1534 1537 1540 1541 1540 1540 1544 1545 1541 1538 1535 1534 1534 1535 1535 1535 1534 1534 1533 1532 1530 1529 1527 1527 1527 1526 1526 1526 1526 1526 1527 1527 1528 1528 1528 1529 1528 1528 1528 1529
1523 1521 1524 1534 1537 1530 1522 1520 1519 1520 1522 1522 1523 1525 1525 1525 1525 1525 1527 1531 1531 1531 1534 1536 1538 1540 1541 1539 1538 1541 1544 1543 1540 1538 1537 1536 1535 1535 1535 1535 1535 1534 1533 1532 1530 1529 1528 1527 1527 1526 1526 1526 1526 1526 1526 1526 1527 1527 1526 1526 1526 1526 1527
1524 1525 1530 1537 1532 1519 1515 1519 1520 1520 1522 1523 1524 1526 1525 1525 1526 1526 1529 1533 1533 1532 1535 1537 1538 1540 1540 1537 1536 1539 1543 1543 1542 1540 1539 1538 1537 1537 1536 1536 1536 1535 1535 1534 1533 1531 1530 1529 1528 1527 1526 1526 1526 1525 1525 1525 1525 1525 1525 1524 1524 1524 1524
1525 1526 1526 1524 1521 1517 1516 1517 1519 1520 1520 1520 1523 1525 1524 1524 1525 1526 1528 1530 1531 1533 1534 1536 1537 1538 1537 1537 1538 1539 1542 1543 1543 1542 1541 1540 1539 1538 1538 1538 1537 1536 1536 1536 1535 1534 1532 1531 1530 1528 1528 1528 1527 1526 1525 1525 1525 1525 1525 1524 1524 1524 1524
1522 1524 1525 1524 1527 1527 1521 1516 1516 1517 1518 1518 1519 1523 1524 1522 1524 1526 1527 1528 1531 1532 1534 1535 1536 1535 1536 1537 1539 1540 1541 1542 1543 1544 1542 1541 1540 1540 1540 1539 1538 1537 1537 1537 1536 1536 1534 1533 1532 1531 1530 1529 1528 1527 1527 1527 1527 1526 1526 1525 1525 1525 1524
1521 1525 1528 1527 1528 1526 1519 1515 1516 1517 1519 1518 1519 1525 1526 1521 1522 1526 1527 1528 1532 1533 1534 1534 1534 1535 1537 1537 1538 1541 1541 1542 1544 1544 1543 1542 1541 1541 1541 1540 1540 1539 1538 1538 1537 1536 1536 1535 1535 1533 1532 1531 1530 1529 1529 1529 1528 1528 1527 1527 1526 1526 1525
1518 1522 1524 1520 1518 1518 1516 1515 1516 1518 1518 1518 1524 1536 1533 1521 1521 1527 1526 1527 1531 1532 1534 1534 1533 1534 1535 1535 1537 1541 1542 1542 1544 1544 1543 1543 1543 1542 1542 1542 1541 1540 1539 1539 1538 1537 1536 1537 1537 1536 1534 1533 1531 1531 1531 1531 1530 1529 1529 1529 1529 1528 1527
1515 1521 1523 1517 1513 1514 1515 1515 1516 1517 1519 1522 1529 1535 1530 1522 1523 1526 1526 1527 1530 1531 1533 1534 1533 1533 1534 1534 1537 1540 1541 1542 1542 1543 1544 1544 1544 1544 1543 1542 1542 1541 1540 1540 1539 1538 1537 1538 1539 1538 1536 1535 1534 1533 1532 1532 1531 1532 1532 1531 1531 1530 1529
1514 1517 1520 1518 1516 1515 1515 1516 1517 1518 1522 1527 1528 1524 1522 1523 1525 1526 1527 1528 1529 1531 1533 1533 1534 1535 1536 1537 1538 1539 1540 1541 1542 1543 1544 1545 1545 1545 1544 1543 1543 1542 1541 1541 1540 1539 1539 1538 1539 1539 1538 1537 1536 1535 1534 1533 1533 1534 1534 1533 1532 1532 1531
1515 1518 1522 1524 1522 1517 1515 1516 1518 1519 1521 1524 1524 1522 1523 1525 1525 1526 1528 1529 1529 1531 1532 1533 1535 1536 1537 1538 1539 1539 1541 1541 1542 1543 1544 1545 1546 1546 1545 1545 1544 1543 1543 1542 1541 1541 1540 1539 1539 1539 1539 1538 1537 1537 1536 1535 1536 1535 1535 1535 1534 1533 1533
1516 1520 1521 1520 1517 1514 1514 1516 1516 1517 1518 1520 1522 1523 1523 1524 1525 1527 1528 1529 1530 1531 1532 1533 1535 1536 1537 1538 1538 1539 1541 1542 1543 1544 1545 1545 1546 1546 1545 1545 1545 1544 1544 1544 1543 1542 1541 1540 1540 1540 1539 1539 1539 1538 1538 1537 1537 1537 1536 1536 1536 1535 1535
1511 1512 1512 1512 1512 1513 1515 1516 1516 1517 1519 1520 1522 1522 1522 1524 1526 1527 1527 1529 1530 1531 1532 1534 1535 1536 1537 1538 1538 1539 1541 1542 1544 1545 1545 1546 1547 1546 1546 1545 1545 1545 1545 1545 1544 1543 1542 1542 1541 1540 1540 1540 1540 1540 1540 1540 1539 1538 1538 1538 1537 1537 1536
1508 1510 1510 1511 1513 1514 1515 1517 1518 1519 1520 1520 1521 1522 1523 1524 1525 1526 1528 1529 1530 1531 1532 1533 1535 1536 1537 1538 1539 1540 1541 1542 1544 1545 1546 1547 1547 1547 1547 1546 1546 1547 1547 1546 1545 1544 1544 1543 1543 1541 1541 1541 1541 1541 1541 1541 1541 1540 1540 1539 1538 1538 1538
1511 1512 1510 1510 1513 1514 1515 1517 1518 1519 1520 1521 1522 1522 1523 1524 1526 1527 1528 1528 1529 1531 1532 1533 1534 1536 1537 1538 1539 1540 1542 1543 1544 1545 1546 1547 1547 1547 1547 1547 1548 1548 1548 1547 1546 1546 1545 1545 1543 1543 1542 1542 1542 1542 1542 1543 1543 1541 1541 1541 1540 1540 1539
1510 1510 1509 1511 1513 1514 1515 1516 1518 1519 1520 1521 1522 1523 1524 1525 1526 1527 1527 1528 1529 1530 1531 1533 1534 1536 1537 1538 1539 1540 1542 1544 1545 1546 1547 1547 1547 1548 1548 1548 1549 1549 1549 1548 1548 1547 1546 1545 1545 1544 1544 1544 1544 1544 1543 1543 1543 1542 1542 1542 1541 1541 1541
1508 1510 1511 1512 1514 1515 1516 1516 1517 1518 1520 1521 1522 1523 1524 1525 1526 1527 1528 1529 1530 1531 1532 1533 1534 1536 1537 1539 1540 1541 1543 1544 1545 1547 1547 1548 1548 1549 1549 1549 1550 1549 1549 1549 1548 1548 1547 1546 1546 1546 1546 1546 1546 1545 1545 1544 1544 1543 1543 1543 1543 1542 1542
1507 1507 1508 1510 1511 1511 1513 1515 1516 1518 1520 1521 1522 1523 1524 1526 1527 1527 1528 1530 1531 1532 1533 1534 1535 1537 1538 1539 1541 1542 1543 1544 1546 1547 1547 1548 1549 1549 1549 1550 1550 1550 1550 1550 1549 1548 1548 1547 1547 1547 1547 1547 1547 1546 1546 1545 1545 1544 1544 1544 1544 1544 1543
1503 1501 1503 1506 1507 1507 1509 1513 1516 1518 1520 1521 1522 1524 1525 1526 1527 1528 1529 1530 1531 1532 1534 1535 1536 1537 1538 1540 1541 1542 1544 1545 1546 1547 1548 1549 1549 1549 1550 1550 1550 1551 1551 1550 1550 1549 1548 1548 1548 1548 1548 1548 1548 1547 1547 1546 1546 1546 1545 1545 1545 1545 1544
1501 1501 1503 1506 1507 1506 1509 1512 1515 1517 1519 1521 1522 1523 1525 1526 1527 1529 1530 1531 1532 1533 1534 1535 1537 1537 1539 1540 1542 1543 1544 1545 1546 1547 1548 1548 1549 1549 1550 1550 1551 1551 1551 1550 1550 1550 1549 1549 1549 1549 1549 1549 1548 1548 1548 1547 1547 1547 1546 1546 1546 1546 1545
1502 1502 1504 1506 1507 1507 1509 1512 1515 1517 1519 1520 1522 1523 1525 1526 1527 1529 1530 1531 1532 1533 1534 1535 1537 1538 1539 1540 1542 1543 1544 1545 1546 1547 1547 1548 1549 1549 1550 1550 1550 1550 1550 1550 1549 1549 1549 1549 1549 1550 1550 1550 1549 1549 1548 1547 1547 1547 1547 1547 1546 1546 1546